Terminal Aerodrome Forecast
Issued by NWS

Home | Current Version | Previous Version | Graphics & Text | Print | Product List | Glossary On
Versions: 1 2 3 4 5 6 7 8 9 10 11 12 13 14 15 16 17 18 19 20 21 22 23 24 25 26 27 28 29 30 31 32 33 34 35 36 37 38 39 40 41
000
FTUS43 KLOT 191600 AAC
TAFORD
TAF AMD
KORD 191619Z 1916/2018 22011KT P6SM BKN250
     FM191800 22012G19KT P6SM SCT020 BKN200
     FM200000 22013KT P6SM BKN120
     FM200600 24009KT P6SM BKN080
     FM201400 30011KT P6SM SCT035=

USA.gov is the U.S. government's official web portal to all federal, state and local government web resources and services.